Location: Unspecified
(51.0950°N, 12.9690°E)
Time: 14:59:50
(UTC+00:00)

ATLAS 5 CENTAUR R/B - Pass Details

Date: 28 October 2021
Orbit: 497 x 1159 km, 63.4° (Epoch: 25 November)

Event Time Altitude Azimuth Distance (km) Brightness Sun altitude
Rises 18:18:08 0° 286° (WNW) 2,779 6.3 -23.9°
Reaches altitude 10° 18:20:44 10° 304° (NW) 1,970 5.0 -24.3°
Maximum altitude 18:24:04 20° 353° (N) 1,531 3.7 -24.8°
Enters shadow 18:25:22 18° 15° (NNE) 1,665 3.7 -25.0°
